User: anonymous   Login
Location: Vancouver
(49.2500°N, 123.1330°W)
Time: 12:17:28
(UTC-08:00)
Language:

Transit 2A Rocket - Orbit

View from above orbital plane
View from above orbital plane
View from above satellite
View from above satellite

Ground track
Ground track

The orbit data is extracted from the following two-line orbital elements,

1 00047U 60007C   16342.51122099 -.00000015  00000-0  21793-4 0  9992
2 00047  66.6661 358.2492 0226605 167.2827 193.4130 14.41882373949432
Epoch (UTC): 07 December 2016 12:16:09
Eccentricity: 0.0226605
inclination: 66.6661°
perigee height: 591 km
apogee height: 914 km
right ascension of ascending node: 358.2492°
argument of perigee: 167.2827°
revolutions per day: 14.41882373
mean anomaly at epoch: 193.4130°
orbit number at epoch: 94943

The dashed part of the orbit path shows where the satellite is in the earth's shadow,  

DLR